[[{"header":{"parameterUnit":"m.s-1","parameterCategory":1,"la1":30.2991,"la2":30.254,"lo1":-89.0895,"lo2":-89.0444,"dy":0.0017,"dx":0.0017,"nx":28,"ny":28,"refTime":"2024-06-18T03:00:00:Z","depth":0,"parameterNumber":2,"parameterNumberName":"U-component_of_WINDS"},"data":[0,0,0,0,0,0,0,0,0,0,0,0,0,0,0,0,0,0,0,0,0,0,0,0,0,0,0,0,0,0,0,0,0,0,0,0,0,0,0,0,0,0,0,0,0,0,0,0,0,0,0,0,0,0,0,0,0,0,-10.1288,-10.1289,0,-10.1405,-10.1407,-10.1408,-10.122,-10.1214,-10.1207,-10.1201,-10.1322,-10.1331,-10.134,0,0,0,0,0,0,0,0,0,0,0,0,0,-10.0903,-10.0911,-10.1288,-10.129,-10.1291,-10.1405,-10.1407,-10.1408,-10.1222,-10.1214,-10.1206,-10.1198,-10.1319,-10.133,-10.1341,0,0,0,0,0,0,0,0,0,0,0,0,0,-10.105,-10.0913,-10.1288,-10.1212,-10.1206,-10.1405,-10.1407,-10.1409,-10.1223,-10.1213,-10.1204,-10.1195,-10.1315,-10.1329,-10.1342,-10.1622,0,0,-10.1385,-10.1391,0,0,0,0,0,0,0,0,-10.1042,-10.1065,-10.1221,-10.1217,-10.1211,-10.1288,-10.1315,-10.148,-10.1226,-10.1217,-10.1201,-10.119,-10.1319,-10.1332,-10.1375,-10.1627,-10.1632,-10.1386,-10.1394,-10.14,-10.1404,0,0,0,0,0,0,0,-10.1032,-10.1058,-10.1334,-10.1224,-10.1218,-10.1172,-10.1182,-10.1345,-10.1321,-10.1217,-10.1203,-10.122,-10.1314,-10.1362,-10.1376,-10.1634,-10.1386,-10.1398,-10.1406,-10.1412,-10.2122,-10.2132,0,0,0,0,0,0,-10.1031,-10.1051,-10.1331,-10.1338,-10.1101,-10.1186,-10.1198,-10.1273,-10.1318,-10.1316,-10.1228,-10.1211,-10.1343,-10.136,-10.138,-10.171,-10.14,-10.1413,-10.1421,-10.2112,-10.2125,-10.2136,0,0,0,0,0,0,-10.1024,-10.1058,-10.1326,-10.1191,-10.1222,-10.1203,-10.129,-10.1281,-10.1328,-10.1327,-10.1321,-10.1282,-10.1336,-10.136,-10.1563,-10.1711,-10.1419,-10.1432,-10.2099,-10.2116,-10.213,-10.2373,0,0,0,0,0,0,-10.1013,-10.1056,-10.1162,-10.1195,-10.123,-10.1508,-10.1299,-10.129,-10.1353,-10.1331,-10.1376,-10.1374,-10.133,-10.1543,-10.1577,-10.1725,-10.1443,-10.2086,-10.2107,-10.2125,-10.2351,-10.2395,-10.2432,0,0,0,0,0,-10.1,-10.1225,-10.1168,-10.1203,-10.1361,-10.1517,-10.1536,-10.1482,-10.1366,-10.1472,-10.1471,-10.1372,-10.169,-10.1566,-10.1602,-10.1757,-10.2076,-10.2101,-10.2124,-10.2333,-10.2386,-10.2431,0,0,0,0,0,0,-10.121,-10.1228,-10.1165,-10.1408,-10.1462,-10.1485,-10.1617,-10.154,-10.1628,-10.1605,-10.1533,-10.1545,-10.1763,-10.178,-10.1641,-10.203,-10.1864,-10.1896,-10.2011,-10.2061,-10.2101,-10.2092,-10.1454,0,0,0,0,0,-10.1285,-10.1409,-10.1418,-10.1631,-10.1662,-10.1636,-10.1701,-10.1655,-10.1708,-10.173,-10.1744,-10.18,-10.1912,-10.1987,-10.209,-10.2353,-10.236,-10.2478,-10.2518,-10.2551,-10.258,-10.272,-10.2773,-10.2214,-10.2214,-10.2214,0,0,-10.144,-10.1465,-10.1548,-10.1674,-10.1711,-10.1842,-10.1656,-10.1802,-10.1898,-10.1752,-10.1944,-10.1957,-10.2014,-10.2249,-10.2353,-10.227,-10.2736,-10.2581,-10.2608,-10.2618,-10.275,-10.2803,-10.285,-10.223,-10.2227,-10.2225,0,0,-10.179,-10.1821,-10.2003,-10.2044,-10.2101,-10.2082,-10.2127,-10.2161,-10.2164,-10.2356,-10.2249,-10.2363,-10.2558,-10.2604,-10.2652,-10.3022,-10.2934,-10.3057,-10.3268,-10.3406,-10.345,-10.3489,-10.3621,-10.3669,-10.3086,-10.3086,-10.3087,0,-10.1975,-10.2168,-10.2105,-10.226,-10.2318,-10.2193,-10.2376,-10.2418,-10.2508,-10.2552,-10.2457,-10.27,-10.273,-10.2973,-10.3064,-10.3107,-10.3155,-10.3051,-10.3449,-10.3487,-10.3522,-10.3647,-10.3697,-10.3101,-10.3099,-10.3098,-10.3096,0,-10.2393,-10.2529,-10.2668,-10.2758,-10.2832,-10.3001,-10.2964,-10.3047,-10.2995,-10.2987,-10.3184,-10.3216,-10.3324,-10.3378,-10.3328,-10.3616,-10.3562,-10.346,-10.3292,-10.3591,-10.3708,-10.3755,-10.3122,-10.3117,-10.3112,-10.3109,0,0,-10.2877,-10.2931,-10.2984,-10.3023,-10.3079,-10.3182,-10.3345,-10.3451,-10.3524,-10.359,-10.3725,-10.3894,-10.38,-10.3855,-10.381,-10.3931,-10.4222,-10.3814,-10.3814,-10.3889,-10.4541,-10.4618,-10.4674,-10.4165,-10.4174,-10.4181,-10.4537,0,-10.3226,-10.3506,-10.3456,-10.3729,-10.3854,-10.3737,-10.3878,-10.3928,-10.3925,-10.4031,-10.4026,-10.4147,-10.4014,-10.4047,-10.4162,-10.4163,-10.4352,-10.4136,-10.429,-10.4297,-10.4279,-10.4735,-10.4816,-10.515,-10.4582,-10.4589,-10.4595,0,-10.3669,-10.3752,-10.4038,-10.4075,-10.4125,-10.4254,-10.4347,-10.4449,-10.4504,-10.4493,-10.4557,-10.4488,-10.4651,-10.4482,-10.4705,-10.4559,-10.4619,-10.463,-10.4641,-10.4653,-10.4464,-10.476,-10.5255,-10.5306,-10.4666,-10.466,-10.4655,0,-10.3994,-10.4177,-10.4372,-10.441,-10.4457,-10.4551,-10.4575,-10.462,-10.4687,-10.4769,-10.4811,-10.4912,-10.4966,-10.5046,-10.5007,-10.4887,-10.5238,-10.5065,-10.5234,-10.5235,-10.5313,-10.5308,-10.5825,-10.5353,-10.5352,-10.5351,-10.535,0,-10.4388,-10.4567,-10.4519,-10.4639,-10.4837,-10.4778,-10.4975,-10.4986,-10.5027,-10.5147,-10.5052,-10.5167,-10.5109,-10.522,-10.5191,-10.5381,-10.5406,-10.5402,-10.5393,-10.5411,-10.5412,-10.5449,-10.5425,-10.5364,-10.5361,-10.5359,-10.5356,0,-10.4784,-10.4758,-10.4963,-10.4992,-10.5003,-10.5148,-10.5173,-10.5285,-10.5275,-10.5429,-10.5461,-10.5446,-10.5572,-10.5541,-10.5678,-10.5659,-10.5898,-10.5859,-10.588,-10.5871,-10.6042,-10.6026,-10.66,-10.6673,-10.6154,-10.6159,-10.6163,0,-10.5036,-10.5172,-10.5216,-10.529,-10.5321,-10.5441,-10.5509,-10.5457,-10.5532,-10.5605,-10.5709,-10.5826,-10.5917,-10.6124,-10.6126,-10.6231,-10.6193,-10.6387,-10.6208,-10.6223,-10.6196,-10.6189,-10.6202,-10.6423,-10.6429,-10.6434,-10.6438,0,-10.5488,-10.5469,-10.5571,-10.567,-10.5754,-10.5829,-10.5895,-10.5961,-10.5914,-10.6003,-10.6131,-10.6202,-10.6342,-10.646,-10.6557,-10.6582,-10.6504,-10.6494,-10.6539,-10.6559,-10.6565,-10.6564,-10.5977,-10.6481,-10.6477,-10.6473,-10.6471,-10.6469,-10.582,-10.5935,-10.5984,-10.6101,-10.6146,-10.621,-10.6318,-10.6321,-10.6427,-10.6537,-10.65,-10.6646,-10.6698,-10.682,-10.6857,-10.6971,-10.6898,-10.6963,-10.6979,-10.6996,-10.7017,-10.6548,-10.6989,-10.6987,-10.6986,-10.6985,-10.6984,0,-10.6266,-10.6293,-10.6401,-10.6497,-10.659,-10.6507,-10.6576,-10.6659,-10.6789,-10.6844,-10.6936,-10.7084,-10.7198,-10.7209,-10.7317,-10.7407,-10.7373,-10.7437,-10.7429,-10.7437,-10.7076,-10.7027,-10.7462,-10.7462,-10.7462,-10.7462,-10.7462,-10.7462,-10.651,-10.6701,-10.6688,-10.6901,-10.6925,-10.7068,-10.7114,-10.7174,-10.7217,-10.7386,-10.7481,-10.7487,-10.7525,-10.7636,-10.7737,-10.7737,-10.7782,-10.786,-10.7847,-10.751,-10.7462,-10.7416,-10.737,-10.787,-10.787,-10.8197,-10.82,-10.8202]},{"header":{"parameterUnit":"m.s-1","parameterCategory":1,"la1":30.2991,"la2":30.254,"lo1":-89.0895,"lo2":-89.0444,"dy":0.0017,"dx":0.0017,"nx":28,"ny":28,"refTime":"2024-06-18T03:00:00:Z","depth":0,"parameterNumber":3,"parameterNumberName":"V-component_of_WINDS"},"data":[0,0,0,0,0,0,0,0,0,0,0,0,0,0,0,0,0,0,0,0,0,0,0,0,0,0,0,0,0,0,0,0,0,0,0,0,0,0,0,0,0,0,0,0,0,0,0,0,0,0,0,0,0,0,0,0,0,0,-1.6576,-1.6575,0,-1.6495,-1.6494,-1.6493,-1.6417,-1.6416,-1.6415,-1.6414,-1.6331,-1.633,-1.6329,0,0,0,0,0,0,0,0,0,0,0,0,0,-1.6664,-1.6663,-1.6576,-1.6575,-1.6574,-1.6495,-1.6494,-1.6492,-1.6417,-1.6416,-1.6414,-1.6413,-1.6332,-1.633,-1.6329,0,0,0,0,0,0,0,0,0,0,0,0,0,-1.6609,-1.6662,-1.6576,-1.6526,-1.6521,-1.6495,-1.6494,-1.6492,-1.6417,-1.6415,-1.6414,-1.6413,-1.6332,-1.6331,-1.6329,-1.6345,0,0,-1.6323,-1.6322,0,0,0,0,0,0,0,0,-1.6612,-1.6606,-1.6535,-1.653,-1.6524,-1.6464,-1.6494,-1.6443,-1.6417,-1.6457,-1.6414,-1.6412,-1.6377,-1.6371,-1.6359,-1.6341,-1.6338,-1.6322,-1.6321,-1.632,-1.632,0,0,0,0,0,0,0,-1.6616,-1.6609,-1.6544,-1.6534,-1.6527,-1.6508,-1.6498,-1.6484,-1.6426,-1.6453,-1.6447,-1.6439,-1.6374,-1.6361,-1.6357,-1.6337,-1.6322,-1.6321,-1.632,-1.6319,-1.6325,-1.6326,0,0,0,0,0,0,-1.6627,-1.6612,-1.6546,-1.6541,-1.6565,-1.6507,-1.6497,-1.6485,-1.6426,-1.6415,-1.644,-1.6435,-1.6365,-1.6359,-1.6353,-1.6367,-1.632,-1.6319,-1.6317,-1.6324,-1.6325,-1.6327,0,0,0,0,0,0,-1.663,-1.6622,-1.6549,-1.6575,-1.6564,-1.6507,-1.6494,-1.6484,-1.6471,-1.6416,-1.6405,-1.6438,-1.6364,-1.6356,-1.6347,-1.6363,-1.6318,-1.6316,-1.6322,-1.6324,-1.6326,-1.6395,0,0,0,0,0,0,-1.6632,-1.6623,-1.663,-1.6576,-1.6563,-1.6545,-1.6495,-1.6483,-1.6468,-1.6461,-1.6411,-1.6401,-1.6362,-1.635,-1.6345,-1.6359,-1.6314,-1.6321,-1.6323,-1.6326,-1.6391,-1.6399,-1.6406,0,0,0,0,0,-1.6636,-1.6653,-1.663,-1.6623,-1.657,-1.6546,-1.6539,-1.6493,-1.647,-1.6475,-1.6439,-1.6403,-1.6362,-1.635,-1.6343,-1.6358,-1.6319,-1.6322,-1.6325,-1.6388,-1.6398,-1.6406,0,0,0,0,0,0,-1.6711,-1.6645,-1.6619,-1.6619,-1.6589,-1.6533,-1.6539,-1.6505,-1.6481,-1.6476,-1.642,-1.6409,-1.6406,-1.6381,-1.6369,-1.6369,-1.6336,-1.6338,-1.6385,-1.6394,-1.6402,-1.6407,-1.6313,0,0,0,0,0,-1.6727,-1.6714,-1.6657,-1.6663,-1.6648,-1.6596,-1.6584,-1.6551,-1.6518,-1.6504,-1.6468,-1.6436,-1.6416,-1.6404,-1.6382,-1.6387,-1.6374,-1.6394,-1.6401,-1.6408,-1.641,-1.6408,-1.6415,-1.6337,-1.6337,-1.6337,0,0,-1.6761,-1.6724,-1.6719,-1.6677,-1.6649,-1.6635,-1.6586,-1.6574,-1.6563,-1.6503,-1.6491,-1.6463,-1.6424,-1.6422,-1.6419,-1.64,-1.6428,-1.6411,-1.6417,-1.6415,-1.6412,-1.6419,-1.6426,-1.6339,-1.6339,-1.6338,0,0,-1.6816,-1.6787,-1.6787,-1.676,-1.6718,-1.6683,-1.6684,-1.6633,-1.6611,-1.6599,-1.6552,-1.6538,-1.6505,-1.6479,-1.6461,-1.6503,-1.6469,-1.6498,-1.6537,-1.6536,-1.6542,-1.6547,-1.6561,-1.6566,-1.65,-1.6501,-1.6501,0,-1.6863,-1.6841,-1.6792,-1.6782,-1.6764,-1.6708,-1.6707,-1.6683,-1.6637,-1.6626,-1.6606,-1.6562,-1.6532,-1.6521,-1.6531,-1.6519,-1.6516,-1.6503,-1.6545,-1.655,-1.6554,-1.6566,-1.6572,-1.6504,-1.6504,-1.6504,-1.6503,0,-1.69,-1.6886,-1.6891,-1.6847,-1.6829,-1.6825,-1.6774,-1.6762,-1.6731,-1.6697,-1.6684,-1.6646,-1.6615,-1.661,-1.658,-1.6594,-1.6584,-1.6556,-1.6521,-1.6566,-1.6576,-1.6581,-1.651,-1.6508,-1.6507,-1.6506,0,0,-1.7,-1.6928,-1.693,-1.6908,-1.6858,-1.6845,-1.6837,-1.6806,-1.6796,-1.6766,-1.6757,-1.6729,-1.6702,-1.6682,-1.6647,-1.6647,-1.668,-1.6618,-1.6616,-1.663,-1.6692,-1.6712,-1.6719,-1.6657,-1.6658,-1.6659,-1.6694,0,-1.7045,-1.7027,-1.6981,-1.6977,-1.6962,-1.6907,-1.69,-1.6867,-1.6836,-1.6818,-1.6783,-1.6763,-1.673,-1.6717,-1.6714,-1.6677,-1.6692,-1.6674,-1.6647,-1.6647,-1.6657,-1.6724,-1.6746,-1.6782,-1.6698,-1.6699,-1.6699,0,-1.7095,-1.7067,-1.7061,-1.7009,-1.7001,-1.6995,-1.6961,-1.6946,-1.6907,-1.6884,-1.6861,-1.6822,-1.681,-1.6778,-1.6759,-1.6748,-1.6734,-1.6714,-1.6714,-1.6709,-1.6675,-1.6719,-1.6792,-1.6797,-1.6706,-1.6705,-1.6705,0,-1.7166,-1.7127,-1.7118,-1.7101,-1.7041,-1.7038,-1.7012,-1.6973,-1.6956,-1.6927,-1.6915,-1.6885,-1.6869,-1.6846,-1.68,-1.6782,-1.6785,-1.6751,-1.6765,-1.6766,-1.6767,-1.6768,-1.6838,-1.6761,-1.6761,-1.6761,-1.6761,0,-1.722,-1.7218,-1.7148,-1.7143,-1.7138,-1.7086,-1.7082,-1.7052,-1.7017,-1.7003,-1.6955,-1.6943,-1.6884,-1.6866,-1.683,-1.6818,-1.6812,-1.6792,-1.6782,-1.6795,-1.6798,-1.6785,-1.678,-1.6762,-1.6762,-1.6762,-1.6762,0,-1.7298,-1.7252,-1.7238,-1.7181,-1.7167,-1.7166,-1.7117,-1.7109,-1.7074,-1.7058,-1.7051,-1.6996,-1.6971,-1.6924,-1.6886,-1.6862,-1.6857,-1.6842,-1.687,-1.6864,-1.688,-1.6879,-1.6943,-1.6948,-1.6871,-1.6871,-1.6872,0,-1.7335,-1.7332,-1.7275,-1.7262,-1.7238,-1.7219,-1.7201,-1.7149,-1.7133,-1.7088,-1.7085,-1.7056,-1.703,-1.6993,-1.6949,-1.692,-1.6902,-1.6926,-1.6897,-1.691,-1.69,-1.69,-1.6898,-1.6933,-1.6934,-1.6935,-1.6935,0,-1.7405,-1.7381,-1.7358,-1.7326,-1.7306,-1.7278,-1.7248,-1.724,-1.7181,-1.7165,-1.7138,-1.7118,-1.7079,-1.7051,-1.7014,-1.6987,-1.6951,-1.6945,-1.6946,-1.6959,-1.6975,-1.6965,-1.6887,-1.6944,-1.6943,-1.6942,-1.6942,-1.6941,-1.7462,-1.7455,-1.7414,-1.7388,-1.736,-1.7333,-1.7321,-1.7285,-1.7262,-1.7225,-1.7196,-1.7172,-1.7131,-1.7079,-1.7054,-1.7034,-1.7016,-1.7019,-1.7019,-1.702,-1.7025,-1.698,-1.7027,-1.7027,-1.7027,-1.7026,-1.7026,0,-1.7527,-1.7497,-1.7474,-1.7433,-1.7413,-1.738,-1.7345,-1.733,-1.7309,-1.7275,-1.725,-1.7219,-1.719,-1.7144,-1.7112,-1.7105,-1.7087,-1.7098,-1.7097,-1.7091,-1.7043,-1.7044,-1.7112,-1.7112,-1.7112,-1.7112,-1.7112,-1.7112,-1.7558,-1.7545,-1.7517,-1.7489,-1.7459,-1.7434,-1.7417,-1.739,-1.7362,-1.733,-1.7306,-1.7276,-1.7236,-1.72,-1.7172,-1.7159,-1.7149,-1.7165,-1.7147,-1.7103,-1.7095,-1.7087,-1.7088,-1.7164,-1.7164,-1.7196,-1.7196,-1.7196]}]]